Location: Observatoire de Paris
(48.8363°N, 2.3365°E)
Time: 18:51:14
(UTC+01:00)

METEOR M2 - Pass Details

Date: 23 September 2021
Orbit: 820 x 826 km, 98.5° (Epoch: 28 October)

Event Time Altitude Azimuth Distance (km) Brightness Sun altitude
Rises 19:11:16 0° 160° (SSE) 3,339 ? -5.0°
Reaches altitude 10° 19:13:36 10° 159° (SSE) 2,410 ? -5.3°
Maximum altitude 19:18:56 80° 74° (ENE) 840 ? -6.2°
Drops below altitude 10° 19:24:19 10° 348° (NNW) 2,430 ? -7.1°
Sets 19:26:40 0° 347° (NNW) 3,368 ? -7.5°
